Kenner, LA

10:51 PM CST on February 08, 2016 (GMT -0600)
New Orleans International

Weather History for KMSY - September, 2012

Change the Weather History Date:

Tuesday, September 18, 2012

  Actual Average Record
Temperature  
Mean Temperature 78 °F -  
Max Temperature 84 °F 87 °F 94 °F (1954)
Min Temperature 71 °F 70 °F 58 °F (1961)
Cooling Degree Days 12    
Growing Degree Days 28 (Base 50)    
Moisture  
Dew Point 68 °F    
Average Humidity 77    
Maximum Humidity 94    
Minimum Humidity 51    
Precipitation  
Precipitation 0.01 in - - ()
Sea Level Pressure  
Sea Level Pressure 29.87 in    
Wind  
Wind Speed 9 mph (NW)    
Max Wind Speed 17 mph    
Max Gust Speed 22 mph    
Visibility 9 miles    
Events Rain    
Averages and records for this station are not official NWS values.
T = Trace of Precipitation, MM = Missing Value Source: NWS Daily Summary

Daily Weather History Graph

Daily Weather History Graph

Search for Another Location

Airport or City:

Trip Planner

Search our weather history database for the weather conditions in past years. The results will help you decide how hot, cold, wet, or windy it might be!

Date:

Astronomy

Sep. 18, 2012 Rise Set
Actual Time 6:47 AM CDT 7:01 PM CDT
Civil Twilight 6:23 AM CDT 7:25 PM CDT
Nautical Twilight 5:55 AM CDT 7:53 PM CDT
Astronomical Twilight 5:27 AM CDT 8:21 PM CDT
Moon 9:29 AM CDT (9/18) 8:44 PM CDT (9/18)
Length of Visible Light 13h 02m
Length of Day
12h 14m
Waxing Crescent, 9% of the Moon is Illuminated
Sep 18
Waxing Crescent
Sep 22
First Quarter
Sep 29
Full
Oct 8
Last Quarter
Oct 15
New

Hourly Weather History & Observations

Time (CDT) Temp. Heat Index Dew Point Humidity Pressure Visibility Wind Dir Wind Speed Gust Speed Precip Events Conditions
12:53 AM 73.0 °F - 70.0 °F 90% 29.78 in 10.0 mi West 6.9 mph - N/A   Mostly Cloudy
1:53 AM 72.0 °F - 70.0 °F 93% 29.80 in 8.0 mi SW 3.5 mph - N/A   Clear
2:53 AM 72.0 °F - 70.0 °F 93% 29.79 in 9.0 mi West 4.6 mph - N/A   Scattered Clouds
3:20 AM 71.6 °F - 69.8 °F 94% 29.78 in 6.0 mi West 3.5 mph - N/A   Scattered Clouds
3:53 AM 72.0 °F - 70.0 °F 93% 29.78 in 6.0 mi WSW 5.8 mph - N/A   Mostly Cloudy
4:40 AM 71.6 °F - 69.8 °F 94% 29.78 in 5.0 mi WSW 6.9 mph - N/A   Overcast
4:53 AM 72.0 °F - 70.0 °F 93% 29.78 in 6.0 mi WSW 6.9 mph - N/A   Overcast
5:53 AM 72.0 °F - 70.0 °F 93% 29.80 in 9.0 mi West 8.1 mph - N/A   Overcast
6:20 AM 71.6 °F - 69.8 °F 94% 29.80 in 10.0 mi West 6.9 mph - N/A   Mostly Cloudy
6:53 AM 72.0 °F - 69.1 °F 91% 29.82 in 10.0 mi West 9.2 mph - N/A   Scattered Clouds
7:53 AM 73.0 °F - 69.1 °F 87% 29.85 in 8.0 mi West 12.7 mph - N/A   Mostly Cloudy
8:36 AM 73.4 °F - 69.8 °F 88% 29.85 in 8.0 mi West 12.7 mph - N/A   Mostly Cloudy
8:53 AM 73.0 °F - 70.0 °F 90% 29.87 in 5.0 mi West 13.8 mph - 0.00 in Rain Light Rain
9:07 AM 73.4 °F - 69.8 °F 88% 29.86 in 10.0 mi WNW 10.4 mph - 0.01 in   Mostly Cloudy
9:53 AM 77.0 °F - 69.1 °F 76% 29.88 in 10.0 mi WNW 12.7 mph - 0.01 in   Mostly Cloudy
10:53 AM 77.0 °F - 69.1 °F 76% 29.89 in 10.0 mi NW 12.7 mph 21.9 mph N/A   Mostly Cloudy
11:53 AM 80.1 °F 82.9 °F 69.1 °F 69% 29.90 in 10.0 mi NNW 15.0 mph - N/A   Mostly Cloudy
12:53 PM 80.1 °F 82.7 °F 68.0 °F 67% 29.91 in 10.0 mi NNW 12.7 mph 19.6 mph N/A   Mostly Cloudy
1:53 PM 82.9 °F 85.0 °F 66.0 °F 56% 29.92 in 10.0 mi North 12.7 mph 21.9 mph N/A   Mostly Cloudy
2:53 PM 82.9 °F 85.0 °F 66.0 °F 56% 29.90 in 10.0 mi North 10.4 mph - N/A   Mostly Cloudy
3:53 PM 82.9 °F 85.0 °F 66.0 °F 56% 29.90 in 10.0 mi NNE 12.7 mph - N/A   Mostly Cloudy
4:53 PM 82.0 °F 84.1 °F 66.0 °F 58% 29.90 in 10.0 mi NNE 9.2 mph - N/A   Scattered Clouds
5:53 PM 82.0 °F 84.1 °F 66.0 °F 58% 29.90 in 10.0 mi North 6.9 mph - N/A   Scattered Clouds
6:53 PM 80.1 °F 81.9 °F 64.9 °F 60% 29.90 in 10.0 mi North 9.2 mph - N/A   Scattered Clouds
7:53 PM 79.0 °F - 66.0 °F 64% 29.93 in 10.0 mi North 8.1 mph - N/A   Scattered Clouds
8:53 PM 80.1 °F 82.1 °F 66.0 °F 62% 29.96 in 10.0 mi North 13.8 mph - N/A   Mostly Cloudy
9:53 PM 77.0 °F - 66.0 °F 69% 29.99 in 10.0 mi NNE 17.3 mph - N/A   Scattered Clouds
10:53 PM 75.0 °F - 66.0 °F 73% 30.01 in 10.0 mi North 12.7 mph - N/A   Scattered Clouds
11:53 PM 73.9 °F - 64.9 °F 73% 30.02 in 10.0 mi NNE 13.8 mph 18.4 mph N/A   Partly Cloudy